sat.trackr.live / text

‹ back to catalog

STARLINK-32862

NORAD 62864 · 2025-022L

PAYLOAD ACTIVE UNKNOWN

§ Identity

Operator
Country
US
Launch date
2025-02-01
Launch site
AFWTR
Launch vehicle
Mass (kg)
RCS (m²)

Purposes: comms

External: N2YO · Heavens-Above · Gunter

§ Orbital elements

Epoch: 2026-09-21T08:47:15.137088Z

Period
93.85 min
Inclination
53.1595°
Eccentricity
0.0002304
Mean motion
15.34411139 rev/d
Perigee alt
461.1 km
Apogee alt
464.2 km
Semi-major
6,840.8 km
B*
5.5937e-4
RAAN
297.5597°
Arg perigee
95.4980°
Mean anomaly
264.6286°
Rev number
9,190

§ Raw data

STARLINK-328621 62864U 25022L   26264.36614742  .00018577  00000+0  55937-3 0  99992 62864  53.1595 297.5597 0002304  95.4980 264.6286 15.34411139 91909

JSON: /api/v1/satellites/62864 · /tle

For live sub-satellite position, see the globe view (requires WebGL).

§ Visibility from observer

Set your observer location to see the next 7 days of passes ≥ 10°. The values pass through the URL so the page stays shareable.

No JS? Fill the form by hand. The geolocation button needs JavaScript.